Wind_Speed
7 8 9 11 11 9 8 8 8 9 10 10 10 10 10 10 11 12 12 14 14 14 16 18 19 21 22 23 25 27 27 28 29 29 29 29 28 27 27 27 26 26 25 24 25 24 24 24 27 28 26 25 27 29 29 30 31 31 29 27 25 24 22
6 7 8 9 9 8 7 8 8 8 9 10 10 9 10 11 12 13 14 15 14 15 16 18 19 20 21 22 26 28 29 30 32 32 33 32 30 29 28 28 28 27 26 25 25 25 25 25 27 28 27 26 27 29 30 30 31 32 30 28 26 24 23
5 5 6 7 7 7 7 7 7 8 8 9 9 10 11 12 13 14 14 15 15 15 17 18 19 21 21 22 26 30 31 32 33 34 34 33 31 29 29 30 30 29 28 27 26 26 26 26 27 28 28 27 27 28 30 30 31 32 31 30 28 25 25
4 3 4 5 7 7 7 6 6 8 8 9 10 11 11 11 12 13 14 15 16 17 18 19 20 21 22 22 25 29 30 32 34 34 35 34 32 30 31 32 32 31 30 29 28 27 27 28 28 29 29 28 28 28 30 30 31 31 31 31 30 28 26
4 4 4 4 6 6 6 6 6 8 8 9 10 11 11 11 11 13 14 16 17 18 18 18 20 22 22 22 24 27 29 31 34 35 36 36 34 32 33 34 33 32 32 31 30 28 28 29 29 30 30 29 29 29 30 31 31 31 32 32 31 30 28
5 4 3 4 5 5 6 6 7 7 8 10 11 11 11 11 12 13 15 15 16 16 16 17 19 21 22 22 23 26 28 30 33 35 36 37 37 36 35 34 34 34 33 32 31 30 29 29 30 30 30 30 29 30 30 32 32 32 32 32 32 32 30
5 4 3 3 4 5 6 6 8 9 10 11 11 11 12 12 13 14 14 14 14 14 15 16 19 21 22 21 22 25 27 29 32 35 36 37 38 38 36 36 35 35 34 33 32 31 30 30 30 31 31 30 30 30 30 32 33 33 33 33 33 32 31
5 3 2 3 4 5 7 8 9 10 11 11 12 12 12 13 14 14 13 13 14 14 15 16 18 20 20 21 21 22 26 29 32 35 37 38 39 39 37 37 37 35 35 34 33 32 31 30 30 31 31 31 30 30 31 31 33 34 33 33 33 33 32
4 2 3 3 5 6 8 9 10 10 11 11 11 11 12 13 13 13 13 14 14 14 15 16 17 18 19 19 19 19 24 28 30 34 37 39 40 40 39 38 37 36 36 35 33 33 32 31 31 32 32 32 31 31 31 31 32 34 34 34 34 33 33
4 3 3 4 5 7 8 10 10 10 11 11 11 11 12 12 12 12 13 13 14 14 14 15 16 17 18 18 17 17 21 25 28 32 37 38 38 39 40 38 37 36 36 35 34 34 33 33 32 32 32 32 32 32 32 32 32 33 34 34 34 34 33
4 4 4 4 6 7 9 9 10 10 10 10 11 11 11 11 11 11 12 12 13 12 12 14 15 15 16 15 15 15 19 23 26 31 36 38 38 38 39 38 37 36 36 36 35 34 34 32 31 31 31 31 33 33 33 32 32 33 33 34 34 34 34
4 5 4 5 6 8 8 9 10 10 10 10 9 9 9 10 9 10 11 12 11 11 12 13 12 13 14 12 11 12 15 19 25 30 33 35 40 39 38 38 36 35 35 34 34 34 34 31 29 29 30 30 32 33 32 32 32 33 33 33 34 34 34
4 5 5 5 7 8 9 9 9 9 9 8 7 7 7 7 8 10 11 11 10 10 11 11 9 10 11 8 8 10 11 15 22 23 20 25 35 34 34 36 34 33 33 33 33 33 33 30 29 28 29 30 32 33 33 33 33 33 33 33 34 34 34
4 5 5 6 7 8 8 8 7 7 6 5 5 5 5 6 8 9 10 10 10 10 10 8 6 7 8 4 4 7 9 12 15 13 12 21 29 29 31 33 33 32 32 32 33 33 31 30 29 29 29 30 32 34 35 36 35 35 34 34 34 34 34
4 5 5 5 6 7 6 6 5 4 4 4 4 4 5 6 8 9 9 9 9 10 9 6 5 4 6 4 1 4 7 10 12 12 15 21 25 28 31 31 31 32 32 33 34 33 31 31 30 30 31 31 32 34 36 37 37 36 35 35 34 34 34
5 5 5 4 5 6 6 5 4 3 3 3 3 4 4 5 6 7 7 8 8 9 8 5 6 5 5 4 2 1 4 9 12 14 16 21 25 28 31 31 31 31 32 32 32 31 31 30 30 31 32 33 33 34 35 35 35 35 35 35 34 34 34
5 5 4 4 4 5 6 5 3 2 2 2 2 3 3 4 5 6 6 6 6 7 5 4 7 7 5 5 3 1 2 8 12 14 17 21 24 25 27 29 30 30 31 31 31 30 29 29 29 30 31 33 35 36 36 34 33 33 34 34 34 34 35
4 4 4 4 5 5 6 4 3 2 1 1 2 3 4 4 5 5 6 5 4 4 3 3 6 7 6 5 3 3 3 6 10 11 12 15 17 18 21 24 27 28 29 29 29 29 29 29 29 30 32 34 35 35 35 34 33 33 33 33 34 35 35
3 4 3 4 5 5 4 3 2 1 1 1 2 3 4 4 4 5 5 4 3 2 1 2 4 6 5 5 3 2 3 5 8 7 7 9 12 14 17 19 21 23 25 26 28 29 29 30 29 30 31 32 31 30 30 30 31 32 32 34 35 35 36
2 2 1 3 4 3 1 1 1 1 1 2 3 3 3 4 4 4 4 3 3 1 1 2 4 4 5 5 4 2 2 3 4 5 6 8 9 11 14 17 19 20 22 24 26 27 28 29 29 28 29 28 27 27 28 28 29 31 32 34 34 34 35
0 1 1 2 2 0 1 0 1 1 2 2 3 3 3 3 3 3 3 3 2 2 2 3 4 4 5 5 5 4 3 3 3 3 5 7 8 9 11 13 16 18 20 22 23 24 27 28 28 27 27 27 27 27 27 26 28 30 31 32 33 33 34
2 2 2 0 1 1 1 1 1 1 1 1 2 2 3 2 3 3 3 3 2 2 3 4 5 5 5 6 6 6 5 5 5 5 5 6 7 8 9 11 13 16 18 19 20 22 24 25 25 26 26 27 27 27 26 25 26 28 30 31 32 33 33
5 4 3 2 1 1 2 2 1 2 2 1 1 2 2 2 2 3 3 3 3 3 3 4 5 6 6 7 7 7 7 7 7 6 6 6 6 7 8 9 11 13 15 16 17 18 19 21 22 24 25 26 26 25 24 23 25 27 29 30 32 32 31
7 7 5 4 1 2 3 3 2 2 2 2 1 1 2 2 3 3 3 3 4 4 3 3 4 4 5 5 6 6 7 7 8 7 6 6 6 6 7 7 8 9 10 12 14 16 17 18 20 21 22 22 21 21 21 22 24 26 27 29 30 29 28
7 8 7 5 2 2 3 3 2 3 3 3 2 1 1 2 3 3 4 4 4 3 3 3 3 3 3 3 4 5 6 7 8 8 8 8 7 7 6 6 6 6 7 9 11 13 14 15 16 16 17 17 18 19 19 20 22 24 25 26 26 25 25
9 8 6 4 2 1 2 3 3 3 3 3 2 1 1 2 3 4 4 4 3 2 2 3 3 3 3 3 4 4 5 6 7 8 9 9 9 8 7 6 6 6 7 8 10 11 12 13 13 14 15 16 17 18 19 20 21 23 24 25 24 24 24
11 11 8 6 4 2 0 2 3 3 4 3 3 2 2 2 3 4 5 5 3 3 3 3 3 4 4 4 4 5 5 5 5 6 8 9 10 10 9 8 8 7 8 9 10 11 12 12 12 13 13 15 16 17 18 19 21 22 23 22 22 23 23
10 10 9 7 5 4 2 3 3 3 4 4 4 3 3 3 4 5 6 5 4 3 4 4 4 4 4 5 5 6 6 7 6 6 7 7 9 10 10 11 11 10 10 10 11 12 12 13 13 13 13 14 15 15 16 17 19 20 19 20 21 21 21
8 8 8 6 4 4 3 4 4 4 5 5 5 5 5 5 5 6 7 6 5 5 5 5 5 5 5 5 6 7 7 8 8 8 8 8 8 9 10 11 12 12 12 12 11 12 13 14 14 14 14 14 14 15 16 16 16 17 18 19 20 19 19
8 7 8 8 6 6 6 5 6 6 6 6 6 6 7 7 6 7 7 7 7 6 6 6 6 6 6 6 6 6 7 8 9 9 9 9 9 9 9 9 11 12 13 13 13 13 14 14 14 14 15 15 15 16 16 15 15 17 18 18 18 18 19
10 8 8 9 9 9 8 8 8 8 8 7 8 8 8 8 9 8 8 8 7 7 7 7 7 7 6 6 6 5 6 6 7 8 9 9 10 10 10 10 10 11 12 13 14 14 14 15 15 15 15 15 15 16 16 15 16 17 17 17 17 18 20
11 10 10 10 10 10 10 10 11 10 10 10 9 9 9 9 10 10 9 9 8 8 8 8 8 7 6 6 5 5 5 4 5 5 6 7 8 10 11 11 11 11 11 12 13 14 14 15 15 15 15 15 16 16 16 15 16 17 17 18 19 19 20
14 12 12 12 11 11 11 12 12 12 12 12 12 11 10 10 10 10 10 10 9 9 8 8 8 8 7 6 6 5 5 5 5 5 5 5 6 7 9 10 11 12 12 13 13 13 14 15 16 16 17 17 17 18 18 17 17 18 19 20 20 20 20
18 16 14 14 13 13 13 13 13 13 14 15 15 13 11 11 11 11 11 11 11 10 9 9 9 8 7 7 7 6 6 6 6 6 6 6 6 6 7 8 9 11 12 13 14 14 15 16 17 17 17 18 18 19 19 19 19 20 20 21 21 21 21
22 20 19 18 17 16 15 15 15 15 15 17 18 16 14 13 13 12 12 12 12 11 11 10 9 9 8 8 8 8 8 8 8 8 8 8 8 8 8 8 9 10 11 12 14 15 16 17 18 18 19 19 19 19 20 20 20 20 20 21 21 21 21
24 24 23 22 21 19 19 18 18 18 18 18 20 20 17 15 14 13 13 13 12 12 12 12 11 10 9 9 9 9 10 10 10 10 10 10 10 10 10 10 10 11 12 13 13 14 15 16 17 18 18 19 19 20 20 20 20 20 21 21 21 21 21
26 27 27 26 24 22 21 22 22 21 21 21 22 22 20 18 16 14 14 14 13 12 12 13 12 11 10 10 11 11 11 11 11 11 11 11 11 11 11 11 12 12 13 13 14 15 15 15 16 16 16 17 17 18 19 19 19 20 20 21 21 20 20
33 34 33 32 28 25 24 25 25 25 24 23 24 25 24 21 17 14 14 14 13 12 12 13 13 12 12 11 12 12 12 12 12 11 11 11 11 11 12 12 13 13 14 14 14 14 15 15 15 15 15 15 15 16 16 17 18 18 18 18 18 18 17
Wind_Direction
284 276 258 244 238 242 248 245 247 253 258 260 259 255 249 245 247 249 247 247 252 263 271 275 274 270 265 259 253 247 242 238 235 231 227 224 221 219 220 221 220 218 218 217 217 217 217 220 221 218 214 211 209 208 208 208 207 207 207 206 206 205 204
282 272 255 243 237 240 245 245 252 258 260 262 262 259 255 250 250 252 250 250 259 271 279 283 284 281 276 264 254 247 241 238 234 230 225 221 219 218 218 220 220 218 216 215 215 216 215 216 220 218 214 212 209 209 209 209 209 208 209 209 208 207 205
283 274 258 244 235 233 237 245 253 256 258 260 260 260 257 255 255 255 255 257 266 278 284 287 289 287 283 270 255 248 243 238 234 230 226 219 216 218 218 219 220 217 215 214 213 214 213 213 216 216 214 212 210 210 210 212 212 211 211 211 211 211 211
284 275 261 244 233 229 235 245 251 252 254 255 258 260 259 260 261 260 260 263 272 282 286 289 291 290 286 274 258 250 245 241 236 230 225 219 214 216 218 218 219 217 214 213 212 211 212 212 214 215 214 213 212 210 211 212 214 214 214 214 214 214 216
280 277 265 236 226 226 232 240 248 252 255 259 262 262 261 262 263 263 265 268 277 284 287 291 294 292 288 278 263 253 246 243 240 232 225 219 213 213 216 216 217 217 214 213 212 211 210 211 213 215 215 214 213 212 211 212 214 216 217 217 216 216 217
279 283 265 228 217 224 235 246 257 260 261 263 262 261 264 267 268 269 271 277 283 285 287 292 294 292 288 279 268 258 249 244 242 235 227 219 213 212 214 214 214 216 214 213 212 211 210 209 212 214 215 215 214 213 213 213 214 216 218 219 219 218 218
281 286 268 228 215 229 246 259 268 268 265 263 261 261 265 269 272 274 278 287 290 286 287 292 293 292 288 280 271 263 254 246 241 235 227 220 215 212 211 212 212 213 213 213 213 212 211 210 211 213 214 214 214 214 214 214 215 216 218 220 221 221 221
286 286 258 229 229 244 256 265 269 270 266 262 261 262 264 268 273 277 285 293 291 285 289 294 294 293 288 280 272 263 255 247 238 232 225 218 215 213 210 209 210 211 212 213 213 213 213 213 213 214 213 213 214 214 215 216 216 217 219 221 222 222 223
286 272 254 245 250 258 264 267 267 265 261 259 262 266 268 273 277 281 288 290 286 285 291 296 296 292 287 280 272 261 252 244 235 228 222 217 213 211 210 208 207 209 211 212 213 214 214 214 215 215 214 213 215 215 216 217 218 219 220 221 223 223 224
278 260 269 271 271 271 268 266 263 259 259 262 269 276 279 281 281 283 286 284 283 286 293 298 296 292 289 284 273 260 247 240 233 226 220 216 212 210 209 206 205 207 209 212 213 214 215 215 216 218 216 214 215 217 218 218 219 220 222 222 224 225 225
269 264 281 284 280 279 272 267 263 261 265 272 280 287 287 284 282 284 286 285 285 289 295 300 297 296 295 287 271 255 243 240 234 226 222 217 209 208 207 203 203 206 209 212 214 216 217 217 218 223 223 219 217 219 220 220 220 222 223 224 225 227 227
252 259 278 286 285 284 276 271 268 266 270 280 289 294 291 285 282 285 288 288 289 291 298 302 301 303 302 285 260 246 246 245 235 232 233 218 202 202 205 201 201 206 210 213 216 218 220 218 219 224 227 226 224 223 223 223 223 223 224 225 226 227 228
245 255 269 281 286 286 281 279 278 274 277 284 293 296 289 280 280 285 289 291 291 293 299 303 304 312 313 288 248 238 245 246 236 237 237 207 193 197 204 201 200 204 209 214 218 220 221 220 221 225 228 229 228 226 226 226 226 226 225 226 227 228 229
250 257 270 281 291 295 294 292 287 283 282 285 294 292 279 277 282 287 292 294 294 296 299 297 293 315 333 326 245 232 233 235 231 223 198 186 191 200 205 203 201 203 208 213 217 220 221 221 222 225 228 230 229 227 227 227 227 227 227 227 229 229 230
258 269 283 292 301 307 305 300 295 293 291 288 286 276 269 279 286 292 297 294 293 297 298 283 255 287 330 346 272 222 220 215 212 203 193 195 200 204 207 208 206 206 209 213 217 219 218 219 222 224 226 229 228 227 226 226 227 228 229 229 230 232 232
269 287 305 308 311 318 317 307 298 297 298 290 276 264 268 283 291 298 300 294 294 302 299 265 228 241 298 321 345 163 195 192 194 199 204 211 211 208 209 212 211 211 213 216 220 221 219 219 222 224 225 227 228 227 226 227 228 228 229 230 231 233 234
278 301 315 312 321 333 328 313 296 289 294 287 275 270 274 286 293 299 297 294 299 307 300 252 224 228 268 298 310 318 189 184 191 200 204 211 216 213 211 214 216 216 217 219 224 226 226 225 224 224 225 227 228 227 226 226 227 228 229 230 232 234 235
279 305 317 315 328 336 326 310 291 281 289 281 267 269 277 284 290 292 292 295 305 313 306 248 227 229 251 275 273 261 240 200 201 211 211 209 214 215 218 221 222 221 221 223 226 229 231 232 229 226 228 229 230 229 228 227 226 226 227 230 232 235 237
286 305 311 309 318 321 311 295 286 290 308 294 264 264 278 285 284 285 289 296 305 318 319 215 216 221 235 249 246 247 246 219 210 218 217 207 206 211 219 224 225 226 227 228 231 233 236 237 235 233 234 235 234 234 235 234 231 229 228 230 233 235 237
303 326 327 307 307 306 276 256 302 330 335 309 278 269 275 281 283 286 292 299 300 291 229 181 192 203 216 234 249 256 251 235 218 212 216 218 213 211 215 219 221 224 228 231 234 237 239 241 239 237 239 241 239 238 237 235 233 232 230 230 233 236 237
265 47 55 308 294 176 143 145 356 352 337 312 287 270 266 274 283 285 291 301 296 254 230 215 212 218 224 236 253 261 255 249 241 223 226 232 229 224 222 221 220 222 227 229 229 231 234 237 238 237 238 240 240 240 238 233 230 230 229 230 232 234 236
158 105 100 194 225 113 79 35 18 353 333 312 278 255 251 266 276 275 280 288 284 255 239 239 239 238 239 244 253 261 261 258 254 249 245 243 234 225 222 221 221 224 228 228 227 228 231 235 238 239 238 236 236 238 236 230 227 227 228 230 232 234 235
162 159 163 206 225 64 40 25 11 345 340 337 260 225 227 247 264 269 267 260 257 255 249 253 254 247 245 249 252 254 258 261 261 258 255 250 238 224 219 219 221 224 227 228 228 229 230 233 236 237 236 233 233 233 231 227 226 227 229 230 233 235 236
168 174 182 203 206 53 40 23 357 334 340 343 309 221 224 235 245 256 260 250 247 250 249 255 261 257 254 254 251 246 246 250 254 251 245 241 239 230 221 218 221 224 224 224 225 224 225 227 229 232 234 232 230 229 227 226 227 228 230 232 234 236 237
178 185 187 193 182 69 53 26 348 322 328 335 319 263 237 237 239 244 248 251 252 251 243 237 241 245 250 254 252 246 241 242 245 241 233 230 233 233 227 222 225 230 229 229 229 228 227 228 230 232 235 234 231 230 228 228 229 230 232 235 237 238 239
181 189 192 193 177 94 59 24 352 321 318 327 322 298 261 246 252 250 252 262 267 256 233 224 221 223 230 238 248 247 242 240 242 239 234 231 233 236 236 232 230 233 236 239 238 234 231 230 230 231 232 233 232 232 231 229 230 232 233 236 238 240 242
181 186 193 191 176 168 302 347 347 326 320 328 328 313 295 274 268 267 270 276 280 269 251 237 222 222 226 231 239 244 244 242 242 241 239 237 237 239 238 235 233 236 242 244 243 239 235 231 229 228 229 230 231 231 232 231 232 234 237 239 241 242 242
188 192 201 200 185 187 235 305 324 326 326 332 336 328 314 297 279 278 284 285 281 273 267 258 244 234 232 237 242 246 246 245 245 246 243 240 240 240 238 235 233 236 240 243 243 242 239 237 236 236 236 235 232 229 228 229 231 235 238 241 244 244 241
197 201 204 198 184 194 230 270 293 311 320 329 338 337 328 316 297 287 291 290 282 273 266 262 257 250 245 245 247 250 252 252 251 249 245 242 241 240 240 238 235 235 237 239 240 240 239 239 240 241 242 241 237 234 231 231 235 239 240 242 244 245 244
197 199 201 199 205 213 224 247 273 296 309 316 328 336 335 328 313 301 299 295 286 274 265 259 258 255 254 254 252 251 253 254 255 253 250 246 243 243 243 242 239 239 241 242 242 240 238 238 239 241 243 242 240 238 236 236 239 242 245 247 247 248 250
203 200 204 210 219 224 226 239 259 278 295 304 316 328 333 331 323 313 307 301 291 280 270 262 260 258 256 256 255 251 250 251 254 256 254 252 250 249 248 246 243 242 243 245 247 245 241 239 240 241 242 242 241 241 241 241 244 246 247 250 251 251 255
219 215 215 218 225 231 235 244 256 270 283 293 303 315 324 328 328 320 311 303 295 288 280 273 271 268 262 257 256 256 254 249 247 250 253 255 254 252 251 249 247 245 243 244 246 247 246 244 244 243 244 243 244 245 244 243 245 249 251 252 252 252 255
233 230 226 225 229 233 238 249 260 270 278 283 292 303 312 320 326 323 314 305 297 291 287 282 279 276 270 264 259 257 259 257 251 247 248 251 255 255 253 251 248 246 244 243 243 244 246 247 247 247 247 247 247 249 248 245 244 247 250 252 253 254 254
236 235 233 233 236 239 242 249 259 269 276 278 282 290 299 309 319 323 317 307 299 294 289 284 281 277 271 267 263 258 255 254 253 251 249 248 252 256 256 256 253 249 246 245 245 245 247 249 249 248 249 250 250 252 253 251 249 249 251 253 256 258 259
237 239 241 242 243 246 250 252 255 261 269 273 276 280 286 295 306 315 316 309 300 294 290 285 281 277 270 266 266 262 256 253 252 251 251 252 253 254 257 259 258 257 254 252 251 250 250 251 252 252 252 252 252 253 255 255 254 253 254 255 257 258 259
239 241 244 246 247 250 256 258 256 256 258 263 268 272 277 284 293 303 309 309 301 293 287 283 281 280 277 272 269 267 264 262 259 256 254 255 255 255 258 259 259 259 260 258 257 256 254 253 253 253 253 253 254 255 256 257 257 256 256 257 258 259 260
244 245 248 250 250 252 257 261 263 262 259 257 260 265 271 276 283 292 301 304 301 292 283 278 276 275 275 273 271 271 270 268 266 263 259 257 257 257 259 260 261 262 262 261 260 260 259 259 258 257 257 256 255 255 256 257 258 258 259 260 261 261 262
256 255 253 251 250 252 255 258 260 261 259 256 255 257 259 261 269 284 295 299 297 289 281 276 273 270 270 272 272 273 273 272 270 267 263 259 258 258 258 259 260 261 261 261 262 261 262 263 264 264 264 264 262 260 258 257 257 257 258 260 261 262 263
Height
3150 3150 3150 3150 3151 3152 3152 3153 3153 3153 3154 3154 3155 3155 3156 3157 3157 3157 3157 3157 3157 3158 3157 3157 3157 3157 3158 3159 3159 3159 3160 3161 3162 3163 3165 3167 3170 3172 3175 3177 3179 3181 3183 3185 3187 3190 3192 3194 3196 3197 3199 3201 3204 3206 3208 3210 3212 3214 3216 3218 3220 3222 3223
3148 3148 3148 3149 3149 3150 3150 3151 3151 3151 3152 3152 3153 3153 3154 3155 3155 3155 3155 3155 3155 3156 3155 3154 3154 3153 3154 3154 3154 3154 3155 3156 3157 3158 3159 3162 3166 3169 3171 3174 3176 3178 3181 3183 3185 3187 3189 3191 3193 3196 3198 3199 3202 3204 3206 3209 3211 3212 3215 3216 3218 3220 3222
3147 3147 3147 3148 3148 3149 3149 3150 3150 3150 3150 3151 3151 3151 3151 3152 3152 3152 3153 3153 3153 3153 3152 3151 3151 3150 3149 3149 3149 3149 3150 3151 3152 3154 3155 3157 3162 3165 3168 3171 3173 3176 3178 3180 3182 3184 3187 3189 3191 3193 3195 3197 3199 3202 3204 3206 3208 3210 3213 3214 3216 3218 3220
3146 3146 3146 3146 3147 3148 3148 3149 3149 3148 3148 3148 3149 3149 3149 3149 3150 3150 3150 3150 3150 3150 3149 3148 3147 3146 3145 3145 3144 3145 3146 3147 3148 3150 3152 3154 3157 3160 3163 3167 3170 3172 3175 3177 3180 3182 3184 3186 3188 3191 3193 3195 3197 3199 3201 3204 3206 3208 3210 3212 3214 3216 3218
3145 3145 3145 3145 3145 3146 3147 3147 3147 3147 3146 3146 3147 3147 3147 3147 3147 3147 3148 3148 3147 3147 3146 3145 3144 3143 3142 3141 3140 3140 3142 3142 3143 3146 3148 3151 3153 3155 3158 3162 3166 3169 3172 3174 3177 3179 3181 3184 3186 3188 3190 3192 3194 3196 3199 3201 3203 3206 3208 3210 3212 3214 3216
3144 3144 3144 3144 3145 3145 3145 3145 3145 3145 3145 3145 3145 3145 3145 3145 3145 3145 3145 3145 3145 3144 3143 3142 3140 3139 3138 3137 3136 3137 3138 3139 3139 3142 3144 3147 3149 3150 3154 3158 3162 3166 3169 3171 3174 3176 3178 3181 3183 3186 3188 3190 3192 3194 3196 3198 3201 3203 3205 3207 3209 3211 3214
3143 3143 3143 3144 3144 3144 3144 3144 3144 3143 3143 3143 3143 3143 3143 3143 3143 3143 3143 3143 3142 3141 3140 3139 3137 3136 3135 3134 3133 3133 3134 3135 3136 3138 3141 3143 3145 3147 3151 3155 3159 3162 3166 3168 3171 3173 3176 3178 3181 3183 3185 3188 3190 3192 3194 3196 3198 3201 3203 3205 3207 3209 3211
3143 3143 3143 3143 3142 3142 3142 3142 3142 3142 3141 3142 3142 3142 3142 3142 3141 3141 3141 3141 3140 3139 3137 3136 3135 3133 3132 3130 3129 3129 3129 3130 3131 3133 3136 3139 3142 3145 3148 3152 3155 3159 3162 3165 3168 3171 3173 3176 3179 3181 3183 3185 3187 3189 3191 3193 3195 3198 3200 3202 3204 3206 3208
3142 3142 3141 3141 3141 3140 3140 3140 3140 3140 3140 3140 3140 3140 3140 3140 3140 3140 3139 3138 3137 3137 3135 3134 3132 3130 3129 3127 3127 3126 3126 3126 3127 3129 3132 3135 3138 3142 3145 3149 3152 3156 3159 3163 3165 3168 3171 3173 3176 3178 3180 3182 3184 3186 3188 3190 3193 3195 3197 3199 3202 3203 3205
3141 3141 3140 3140 3139 3139 3138 3138 3138 3138 3138 3138 3138 3138 3138 3138 3138 3137 3137 3136 3135 3134 3133 3132 3130 3128 3126 3125 3124 3124 3123 3123 3124 3126 3128 3132 3135 3138 3143 3146 3149 3153 3156 3160 3162 3165 3167 3170 3173 3175 3177 3179 3181 3183 3186 3188 3190 3192 3194 3196 3199 3200 3203
3140 3140 3139 3138 3138 3137 3137 3137 3137 3136 3136 3136 3136 3136 3136 3136 3135 3135 3134 3134 3133 3132 3131 3130 3128 3126 3124 3123 3122 3122 3122 3122 3122 3123 3125 3129 3132 3136 3140 3143 3146 3150 3154 3157 3160 3162 3164 3168 3171 3174 3176 3178 3179 3181 3183 3185 3187 3189 3191 3193 3196 3198 3200
3139 3138 3138 3137 3137 3136 3136 3135 3135 3135 3135 3135 3135 3134 3134 3134 3133 3133 3132 3132 3131 3131 3130 3128 3127 3125 3123 3121 3120 3120 3120 3120 3119 3120 3121 3123 3128 3133 3137 3140 3144 3148 3151 3154 3157 3159 3161 3166 3169 3171 3174 3176 3177 3178 3180 3182 3184 3186 3188 3190 3192 3194 3196
3138 3138 3137 3136 3135 3135 3134 3134 3134 3134 3134 3134 3133 3133 3133 3132 3132 3131 3131 3130 3130 3129 3129 3127 3126 3124 3122 3120 3120 3119 3119 3118 3118 3119 3118 3120 3127 3132 3136 3138 3142 3145 3148 3152 3154 3156 3159 3163 3166 3168 3171 3172 3174 3176 3177 3179 3181 3183 3185 3187 3189 3191 3193
3137 3137 3136 3135 3134 3134 3133 3133 3133 3132 3132 3132 3132 3132 3131 3131 3130 3130 3129 3129 3128 3128 3127 3126 3125 3124 3122 3120 3120 3120 3119 3118 3119 3119 3119 3122 3127 3131 3134 3137 3140 3142 3145 3148 3150 3152 3156 3160 3163 3165 3167 3168 3170 3172 3174 3175 3177 3179 3181 3184 3186 3188 3190
3137 3136 3135 3134 3133 3133 3133 3132 3132 3131 3131 3131 3131 3131 3131 3130 3129 3128 3128 3128 3127 3127 3126 3125 3125 3124 3122 3121 3121 3120 3120 3120 3120 3121 3122 3124 3127 3129 3133 3136 3139 3141 3143 3145 3147 3149 3153 3157 3160 3162 3163 3165 3167 3169 3170 3171 3173 3175 3178 3180 3182 3184 3186
3136 3135 3134 3133 3133 3132 3132 3132 3131 3131 3130 3130 3130 3130 3130 3129 3128 3128 3127 3127 3126 3126 3125 3124 3124 3124 3123 3123 3122 3122 3121 3121 3122 3123 3125 3126 3127 3128 3132 3135 3137 3140 3142 3144 3146 3148 3150 3154 3157 3159 3160 3162 3163 3165 3166 3168 3170 3172 3175 3177 3179 3181 3183
3135 3134 3133 3133 3132 3132 3132 3131 3131 3130 3130 3130 3130 3130 3129 3128 3128 3127 3126 3126 3125 3125 3124 3123 3123 3124 3124 3124 3124 3124 3123 3123 3123 3123 3124 3126 3127 3129 3132 3135 3137 3139 3141 3143 3145 3147 3148 3152 3155 3157 3158 3159 3160 3161 3162 3164 3167 3169 3172 3174 3176 3178 3179
3134 3133 3132 3132 3132 3131 3131 3131 3131 3130 3130 3129 3129 3129 3128 3128 3127 3126 3126 3125 3125 3124 3123 3123 3123 3124 3124 3124 3124 3124 3124 3124 3125 3125 3125 3127 3129 3132 3135 3137 3138 3139 3140 3142 3144 3145 3146 3148 3152 3155 3156 3156 3157 3159 3160 3161 3162 3165 3168 3170 3173 3174 3176
3133 3132 3131 3132 3131 3131 3131 3131 3130 3130 3130 3129 3129 3128 3128 3127 3126 3125 3125 3124 3124 3124 3123 3123 3123 3124 3124 3124 3124 3125 3124 3125 3126 3127 3127 3129 3131 3133 3135 3136 3137 3138 3140 3141 3142 3143 3144 3146 3148 3151 3153 3154 3157 3158 3159 3159 3160 3162 3164 3167 3169 3171 3172
3132 3131 3131 3131 3131 3131 3131 3131 3130 3130 3129 3129 3128 3128 3127 3126 3125 3125 3124 3124 3124 3123 3123 3123 3124 3124 3124 3124 3124 3125 3125 3125 3126 3127 3127 3128 3129 3131 3133 3134 3135 3136 3138 3139 3140 3142 3143 3144 3146 3148 3150 3152 3154 3155 3155 3157 3158 3160 3162 3164 3166 3167 3168
3132 3131 3131 3131 3131 3131 3131 3130 3130 3129 3129 3128 3128 3127 3126 3126 3125 3124 3124 3123 3123 3123 3123 3123 3124 3124 3124 3124 3124 3124 3124 3125 3125 3126 3126 3127 3128 3129 3131 3131 3132 3133 3135 3136 3138 3140 3141 3141 3142 3144 3146 3148 3150 3151 3152 3153 3155 3157 3159 3161 3162 3163 3164
3131 3131 3131 3131 3131 3130 3130 3130 3129 3129 3128 3128 3127 3127 3126 3125 3124 3124 3123 3123 3123 3123 3123 3123 3124 3124 3124 3124 3124 3124 3124 3124 3125 3126 3126 3126 3127 3128 3129 3130 3131 3132 3133 3134 3136 3137 3138 3139 3139 3141 3143 3145 3147 3148 3149 3151 3153 3154 3156 3157 3159 3159 3161
3130 3130 3131 3131 3131 3130 3130 3129 3129 3128 3128 3127 3127 3127 3126 3125 3124 3124 3123 3123 3123 3123 3123 3123 3123 3124 3124 3124 3124 3124 3124 3124 3125 3125 3126 3126 3126 3127 3128 3129 3129 3130 3131 3132 3133 3135 3136 3137 3137 3139 3141 3143 3144 3145 3147 3149 3150 3151 3153 3154 3155 3156 3159
3130 3130 3130 3131 3130 3130 3129 3129 3129 3128 3128 3127 3127 3126 3126 3125 3124 3124 3123 3123 3123 3123 3123 3123 3123 3123 3123 3123 3124 3124 3124 3124 3124 3125 3125 3125 3126 3126 3127 3128 3129 3129 3130 3131 3132 3132 3133 3135 3136 3137 3138 3140 3142 3143 3145 3146 3147 3149 3150 3151 3152 3154 3156
3129 3129 3130 3130 3130 3130 3129 3129 3129 3128 3127 3127 3126 3126 3126 3125 3124 3124 3123 3123 3123 3123 3123 3123 3123 3123 3123 3123 3123 3123 3123 3123 3123 3124 3124 3125 3125 3126 3126 3127 3128 3128 3129 3129 3130 3131 3132 3133 3134 3135 3136 3138 3139 3141 3142 3144 3145 3147 3148 3148 3149 3151 3153
3129 3129 3129 3129 3129 3129 3129 3129 3129 3128 3127 3127 3126 3126 3125 3125 3124 3123 3123 3123 3122 3122 3122 3122 3122 3122 3122 3122 3122 3122 3123 3123 3123 3123 3123 3124 3124 3125 3125 3126 3126 3127 3127 3128 3129 3129 3130 3131 3132 3133 3135 3136 3137 3139 3140 3142 3143 3144 3145 3146 3147 3149 3150
3128 3128 3128 3129 3129 3129 3129 3129 3128 3128 3127 3127 3126 3125 3125 3124 3124 3123 3122 3122 3122 3122 3122 3122 3122 3122 3122 3122 3122 3122 3122 3122 3122 3122 3122 3123 3123 3124 3124 3125 3125 3126 3126 3127 3127 3128 3129 3130 3131 3132 3133 3134 3135 3137 3138 3140 3141 3142 3143 3145 3146 3147 3148
3127 3127 3127 3128 3128 3128 3129 3129 3128 3128 3127 3126 3126 3125 3124 3124 3123 3122 3122 3122 3122 3122 3121 3121 3121 3121 3121 3121 3121 3121 3122 3122 3122 3122 3122 3122 3122 3123 3123 3124 3124 3125 3125 3126 3127 3127 3128 3129 3129 3131 3132 3133 3134 3135 3136 3138 3139 3141 3142 3144 3145 3146 3147
3126 3126 3127 3127 3127 3128 3128 3128 3128 3128 3127 3126 3126 3125 3124 3124 3123 3122 3121 3121 3121 3121 3121 3121 3120 3120 3120 3120 3120 3121 3121 3121 3121 3121 3122 3122 3122 3122 3122 3123 3123 3124 3124 3125 3126 3126 3127 3128 3128 3129 3130 3132 3133 3134 3135 3137 3138 3139 3140 3141 3142 3144 3145
3125 3125 3126 3126 3126 3127 3127 3128 3128 3127 3127 3126 3126 3125 3124 3124 3123 3122 3122 3121 3121 3121 3121 3120 3120 3120 3119 3119 3119 3120 3120 3120 3120 3120 3121 3121 3121 3121 3122 3122 3122 3123 3123 3124 3124 3125 3126 3126 3127 3128 3129 3130 3132 3132 3134 3136 3137 3137 3138 3139 3140 3142 3141
3123 3123 3124 3124 3125 3125 3126 3127 3127 3127 3126 3126 3126 3125 3124 3124 3123 3122 3122 3121 3121 3120 3120 3120 3120 3119 3119 3119 3118 3119 3119 3119 3119 3119 3120 3120 3120 3121 3121 3121 3121 3122 3122 3122 3123 3124 3125 3125 3126 3127 3128 3129 3130 3131 3133 3135 3135 3135 3137 3138 3138 3139 3139
3122 3122 3122 3122 3123 3124 3125 3125 3126 3126 3126 3126 3125 3125 3124 3124 3123 3122 3122 3121 3121 3120 3120 3119 3119 3119 3119 3118 3118 3118 3118 3118 3118 3118 3118 3119 3119 3119 3120 3120 3120 3120 3121 3121 3122 3122 3123 3124 3125 3126 3126 3127 3128 3129 3131 3133 3134 3134 3135 3136 3136 3137 3138
3120 3120 3120 3120 3121 3121 3122 3123 3124 3125 3125 3125 3125 3124 3124 3123 3123 3122 3121 3121 3120 3120 3119 3119 3119 3119 3119 3118 3118 3118 3118 3118 3118 3118 3118 3118 3118 3118 3118 3118 3119 3119 3120 3120 3120 3121 3122 3122 3123 3124 3125 3126 3127 3127 3129 3130 3132 3132 3133 3134 3134 3135 3136
3118 3118 3118 3118 3118 3119 3119 3120 3122 3123 3123 3124 3123 3123 3123 3122 3122 3122 3121 3120 3120 3119 3119 3118 3118 3118 3118 3118 3118 3117 3117 3117 3117 3117 3117 3117 3117 3117 3117 3117 3117 3118 3118 3119 3119 3120 3120 3121 3121 3122 3123 3123 3124 3125 3126 3127 3129 3130 3131 3131 3131 3132 3133
3115 3115 3115 3115 3116 3116 3117 3118 3119 3120 3121 3122 3122 3121 3121 3121 3121 3120 3120 3120 3119 3119 3118 3117 3117 3117 3117 3117 3117 3117 3116 3116 3116 3116 3116 3116 3116 3116 3116 3116 3116 3116 3116 3117 3117 3118 3118 3119 3119 3120 3120 3121 3122 3123 3123 3124 3126 3127 3128 3128 3129 3129 3129
3111 3111 3112 3112 3112 3113 3114 3115 3116 3117 3118 3119 3119 3119 3119 3119 3119 3119 3119 3119 3118 3118 3117 3117 3116 3116 3116 3116 3116 3116 3116 3115 3115 3115 3115 3115 3114 3114 3114 3114 3114 3115 3115 3115 3115 3116 3116 3117 3117 3117 3118 3119 3119 3120 3120 3121 3122 3123 3124 3125 3126 3126 3127
3107 3107 3108 3109 3109 3110 3111 3112 3113 3114 3115 3116 3116 3117 3117 3117 3117 3117 3118 3118 3117 3117 3117 3116 3116 3115 3115 3115 3115 3115 3114 3114 3114 3114 3114 3113 3113 3113 3113 3113 3113 3113 3113 3113 3113 3114 3114 3114 3115 3115 3116 3117 3117 3118 3118 3118 3119 3120 3121 3121 3122 3123 3123
3102 3103 3104 3105 3106 3107 3107 3107 3108 3109 3110 3112 3112 3112 3113 3114 3115 3116 3116 3116 3116 3116 3116 3116 3115 3115 3114 3114 3114 3113 3113 3113 3113 3112 3112 3112 3112 3111 3111 3111 3111 3111 3111 3111 3111 3111 3112 3112 3112 3113 3113 3114 3114 3115 3115 3116 3116 3117 3118 3118 3119 3120 3120